Current Version              Previous Version:    01  02  03  04  05  06  07  08  09  10  11  12  13  14  15  16  17  18  19  20  21  22  23  24  25  26  27  28  29  30  
   31  32  33  34  35  36  37  38  39  40  41  42  43  44  45  46  47  48  49  50  51  52  53  54  55  56  57  58  59  60  

[Printable]
989
ASUS44 KEWX 240410
RWRTX
SOUTH TEXAS REGIONAL WEATHER ROUNDUP
NATIONAL WEATHER SERVICE AUSTIN/SAN ANTONIO TX
1100 PM CDT WED APR 23 2014

NOTE: "FAIR" INDICATED FEW OR NO CLOUDS BELOW 12,000 FEET WITH NO
SIGNIFICANT WEATHER AND/OR OBSTRUCTIONS TO VISIBILITY.

* - THESE STATIONS ARE NOT NWS OR FAA STATIONS...AND ARE NOT SUBJECT
    TO NWS AND FAA QUALITY CONTROL.

TXZ171-172-183>190-240500-
TEXAS HILL COUNTRY AND EDWARDS PLATEAU

CITY           SKY/WX    TMP DP  RH WIND       PRES   REMARKS
JUNCTION       MOCLDY    78  60  53 S9        29.75R
*LLANO         CLOUDY    75  63  64 S12G18    29.79R
BURNET         CLOUDY    72  62  71 SE15G28   29.79F
*HORSESHOE BAY CLOUDY    74  62  66 S12G23    29.77R
*KERRVILLE     CLOUDY    72  59  62 SE18      29.80R
*FREDERICKSBRG CLOUDY    72  60  65 S13G26    29.79S
*ROCKSPRINGS   MOCLDY    75  61  60 SE16G22   29.80R
*BOERNE STAGE  CLOUDY    70  59  68 SE13G24   29.79F
*CASTROVILLE   CLOUDY    73  57  57 SE22G29   29.78R
HONDO          CLOUDY    76  60  57 SE23G32   29.76S
*UVALDE        CLOUDY    78  61  56 SE18G25   29.74R
DEL RIO        MOCLDY    72  61  68 S3        29.72R
LAUGHLIN AFB   MOCLDY    74  64  70 S8        29.73R
CARRIZO SPRGS  MOCLDY    77  63  61 SE23G30   29.71F
$$

TXZ173-191>194-202-209-217>225-228-240500-
CENTRAL AND SOUTH CENTRAL TEXAS

CITY           SKY/WX    TMP DP  RH WIND       PRES   REMARKS
GEORGETOWN     CLOUDY    73  63  68 SE14G23   29.79F
AUSTIN/BERGSTM CLOUDY    72  63  73 SE17      29.80F
AUSTIN/MABRY   CLOUDY    72  63  73 SE15G25   29.80F
*AUSTIN/EXEC   CLOUDY    72  63  73 S15G21    29.83R
*LAGO VISTA    CLOUDY    72  63  73 SE10G31   29.81F
SAN MARCOS     CLOUDY    70  61  73 SE21      29.81F
NEW BRAUNFELS  CLOUDY    71  63  75 S25G33    29.78F
RANDOLPH AFB   CLOUDY    70  62  76 SE20G29   29.78F
PT SAN ANTONIO CLOUDY    73  63  70 SE22G28   29.76F
SAN ANTONIO    CLOUDY    73  63  70 SE21G35   29.78F
STINSON FIELD  CLOUDY    73  63  70 SE16G31   29.77F
*PLEASANTON    CLOUDY    72  62  70 SE13      29.85F
*LA GRANGE     CLOUDY    70  65  84 S7        29.84R
*GIDDINGS      CLOUDY    70  62  75 S9G18     29.89R
*GONZALES      CLOUDY    71  66  84 S10G16    29.85R
$$

TXZ163>164-176>182-195>201-210>213-226-227-235-240500-
SOUTHEAST TEXAS

CITY           SKY/WX    TMP DP  RH WIND       PRES   REMARKS
COLLEGE STN    CLOUDY    72  64  76 S17G25    29.84R
*BRYAN         CLOUDY    71  64  79 S13G22    29.84R
*CALDWELL      CLOUDY    70  64  83 S10       29.87R
*CROCKETT      CLOUDY    73  66  78 SE7       29.89R
*BRENHAM       CLOUDY    70  64  79 S12G17    29.85S
HUNTSVILLE     CLOUDY    71  64  78 S7        29.86R
CONROE         MOCLDY    67  66  97 SE10      29.87S
HOUSTON BUSH   PTCLDY    70  65  84 S8        29.87S
HOUSTON HOBBY  PTCLDY    69  66  90 SE9       29.88S
*HOUSTON SW AP CLEAR     67  67  98 SE7       29.88F
PEARLAND       CLEAR     70  65  84 SE7       29.90R
HOUSTON HOOKS  CLEAR     70  65  84 S5        29.87S
ELLINGTON FLD  PTCLDY    70  66  88 SE7       29.90S
SUGAR LAND     PTCLDY    69  66  90 SE12      29.87F
*HOUSTON EXEC  CLEAR     68  68 100 SE10      29.88R
*CLEVELAND MUN CLEAR     67  66  94 S5        29.89S
*WHARTON       MOCLDY    69  66  92 SE10      29.88S
$$

TXZ214>216-236>238-240500-
THE UPPER TEXAS COAST

CITY           SKY/WX    TMP DP  RH WIND       PRES   REMARKS
*ORANGE        PTCLDY    70  66  88 S7        29.92S
PORT ARTHUR    PTCLDY    67  65  93 S7        29.90S
GALVESTON      CLEAR     70  69  97 SE13      29.90F
ANGLETON       PTCLDY    70  66  87 SE13      29.89R
*BAY CITY      CLOUDY    71  69  93 SE10      29.88S
PALACIOS         N/A     72  67  84 SE15G25   29.87
$$

TXZ229>234-239>247-240500-
TEXAS COASTAL BEND AND RIO GRANDE PLAINS

CITY           SKY/WX    TMP DP  RH WIND       PRES   REMARKS
VICTORIA       PTCLDY    70  67  90 SE14      29.86S
*BEEVILLE      CLEAR     71  67  86 SE18      29.82F
ROCKPORT       CLOUDY    73  69  87 SE18G28   29.85S
*PORT ARANSAS  CLOUDY    71  71 100 SE13G20   29.85S
*PORT LAVACA   CLEAR     69  66  90 SE14      29.86S
*INGLESIDE     CLOUDY    73  70  89 SE21      29.84F
CORPUS CHRISTI MOCLDY    73  68  84 SE18G28   29.84S
CORPUS NAS     MOCLDY    72  70  93 SE18      29.84S
*ROBSTOWN      CLOUDY    74  68  82 SE18      29.84S
ALICE          CLEAR     72  66  81 SE14      29.82S
KINGSVILLE NAS PTCLDY    73  68  84 SE18G26   29.83S
COTULLA        MOCLDY    75  61  61 SE29      29.78F
*FAITH RANCH   MOCLDY    81  64  57 SE17G24   29.76S
LAREDO         MOCLDY    78  60  53 SE18G24   29.78F
$$

TXZ248>255-240500-
DEEP SOUTH TEXAS

CITY           SKY/WX    TMP DP  RH WIND       PRES   REMARKS
BROWNSVILLE    CLEAR     73  69  87 SE16G23   29.82F
PORT ISABEL    NOT AVBL
*SOUTH PADRE     N/A     72  70  94 CALM      29.83F
HARLINGEN      CLEAR     72  67  84 SE15      29.80F
*HEBBRONVILLE  CLEAR     72  64  77 SE12G18   29.81F
MCALLEN        PTCLDY    73  67  81 SE13      29.82R
*WESLACO       CLEAR     72  66  80 SE9       29.81R
FALFURRIAS     CLEAR     73  66  78 SE7       29.84R
EDINBURG       CLEAR     74  66  76 SE8       29.82R
*ZAPATA        CLEAR     75  60  58 SE14G20   29.78S
$$

TXZ213>215-236>238-242>244-246-247-251-254-255-240500-
CMAN STATIONS

STATION/POSITION TIME  TEMP    WIND        PRES    WAVE
                       AIR SEA DIR/SP/G            HT/PER
                 (UTC) (F)     (DEG/KT/KT) (MB)    (FT/S)
SABINE PASS      0400   71 72  190/  8/ 12 1012.8
SEA RIM ST PARK  0400   70     170/ 10/ 12 1013.2
NORTH JETTY/GLS  0400   71 74  170/ 12/ 15   N/A
EAGLE POINT      0400   71 70  180/ 14/ 16 1012.0
MORGANS POINT    0400   72 69  150/ 11/ 13   N/A
MISSION/ARANSAS  0300   72     140/ 18     1011.0
PORT O`CONNOR    0400          140/ 19/ 21   N/A
PORT ARANSAS     0400   71 76  130/ 18/ 20 1010.7
MALAQUITE BEACH  0400   72 74  120/ 14/ 17 1010.1
BAFFIN BAY       0400   72 74  140/ 14/ 19 1010.4
PORT ISABEL      0400   73 75  130/ 13/ 18 1010.5
$$

GMZ080-GMZ150>470-240500-
OFFSHORE BUOY REPORTS

STATION/POSITION TIME  TEMP    WIND        PRES    WAVE
                       AIR SEA DIR/SP/G            HT/PER
                 (UTC) (F)     (DEG/KT/KT) (MB)    (FT/S)
20 E GALVESTON   0400   71 71  140/ 12/ 14 1012.0    1/ 3
35 NE PT MANSFLD 0400   72 71  140/ 14/ 16 1010.7    3/ 4
$$



741
ASUS44 KLUB 240410
RWRTX
WEST TEXAS WEATHER ROUNDUP
NATIONAL WEATHER SERVICE LUBBOCK TX
1100 PM CDT WED APR 23 2014

NOTE: "FAIR" INDICATES FEW OR NO CLOUDS BELOW 12,000 FEET WITH NO
SIGNIFICANT WEATHER AND/OR OBSTRUCTIONS TO VISIBILITY.

TXZ004-006>008-010-012-014-016-OKZ002-240500-
TEXAS PANHANDLE/OKLAHOMA PANHANDLE

CITY           SKY/WX    TMP DP  RH WIND       PRES   REMARKS
AMARILLO       CLEAR     68  18  14 SW13      29.64R
BORGER         CLEAR     68  52  56 S15G24    29.59R
CANADIAN       CLEAR     67  59  73 SE23G35   29.59R
DALHART        PTCLDY    68  24  19 W23       29.66R
DUMAS          PTCLDY    66  25  20 W15       29.63R
GUYMON         PTCLDY    67  53  61 S17G24    29.56R
HEREFORD       PTCLDY    70  18  13 SW18      29.68R
PAMPA          CLEAR     62  55  77 SE15      29.64R
PERRYTON       CLEAR     64  55  70 SE23      29.60R
$$

TXZ026-029-035-045-048-240500-
SOUTHERN PANHANDLE/SOUTH PLAINS/ROLLING PLAINS

CITY           SKY/WX    TMP DP  RH WIND       PRES   REMARKS
CHILDRESS      PTCLDY    69  58  67 SE17      29.61R
SEMINOLE       CLEAR     67  25  20 W7        29.74R
LUBBOCK        CLEAR     75  20  12 SW16      29.67R
PLAINVIEW      CLEAR     71  19  13 SW10      29.66R
SNYDER         CLEAR     77  54  45 S16G22    29.70R
$$

TXZ052-054-060>062-072-078-127-140-154-169-240500-
PERMIAN BASIN/CONCHO VALLEY/BIG COUNTRY/EDWARDS PLATEAU

CITY           SKY/WX    TMP DP  RH WIND       PRES   REMARKS
ABILENE        MOCLDY    72  61  68 SE16      29.70R
BIG SPRING     PTCLDY    79  56  45 S14       29.73R
BRADY          CLEAR     75  59  57 SE20      29.72S
BROWNWOOD      PTCLDY    75  61  60 SE12G23   29.73R
JUNCTION       MOCLDY    78  60  53 S9        29.75R
MIDLAND        PTCLDY    78  55  44 S18       29.73R
ODESSA           N/A    N/A N/A N/A MISG      29.74R
SAN ANGELO     CLEAR     78  57  48 S15G23    29.70R
SONORA         CLEAR     75  57  53 S7        29.76R
SWEETWATER     CLEAR     79  53  40 S15G21    29.74R
WINK           CLEAR     73  25  16 W7        29.71R
$$

TXZ055-058-074-075-080-082-240500-
FAR WEST/SOUTHWEST MOUNTAINS/TRANS PECOS

CITY           SKY/WX    TMP DP  RH WIND       PRES   REMARKS
ALPINE         MOCLDY    68  16  13 SW10      29.92R
DRYDEN           N/A     78  56  46 NE9       29.73R
EL PASO        PTCLDY    76  21  12 NW21G33   29.84R
FORT STOCKTON  MOCLDY    74  55  51 S14       29.76R
GUADALUPE PASS CLEAR     69  18  14 W39G49    29.85S
MARFA          MOCLDY    59  16  18 NW5       29.91R
PECOS          PTCLDY    64  43  45 W10       29.72R
PRESIDIO       FAIR      78  14   9 CALM      29.75R
$$

TXZ014-016-019-021>030-083-240500
TEXAS TECH WEST TEXAS MESONET/TEXAS PANHANDLE/NORTHERN SOUTH PLAINS

CITY           SKY/WX    TMP DP  RH WIND       PRES   REMARKS
ABERNATHY 5ENE   N/A     72  19  13 SW17      29.68R
AMARILLO 9NNE    N/A     73  20  14 W13       29.64R
AMARILLO 7SSE    N/A     69  20  16 SW12      29.65R
AMHERST 1NE      N/A     70  16  12 SW15      29.69R
BOOTLEG 11WNW    N/A     67  24  19 W21       29.73R
CANADIAN 6E      N/A     66  57  72 SE25      29.59S
CAPROCK CYN SP   N/A     71  25  18 SW10      29.63S
CHILDRESS 2NNE   N/A     69  58  68 SE22      29.60S
CLARENDON 2WSW   N/A     61  55  79 SE3       29.63S
CLAUDE 12SW      N/A     77  19  11 SW16      29.63S
DIMMITT 2NE      N/A     68  20  16 SW21      29.68R
FLOYDADA 2NNE    N/A     69  21  16 SW12      29.66R
FRIONA 2NE       N/A     67  18  15 W10       29.71R
GOODLETT 3W      N/A     71  59  64 SE23      29.59S
HART 3N          N/A     64  24  21 S13       29.67R
HEREFORD 2NW     N/A     67  20  16 W14       29.68R
MCLEAN 1E        N/A     64  57  80 SE16      29.63S
MEMPHIS 1NE      N/A     65  58  78 NE7       29.62R
MULESHOE 2SSW    N/A     70  16  13 W15       29.72R
OLTON 6S         N/A     69  17  13 SW13      29.68R
PALO DURO SP     N/A     73  20  13 SW15      29.64S
PAMPA 2E         N/A     61  56  82 SE16      29.64R
PLAINVIEW 1S     N/A     72  18  13 SW12      29.66R
SILVERTON 7ESE   N/A     66  27  23 S9        29.65S
TULIA 2ENE       N/A     69  20  15 SW14      29.65S
TURKEY 2WSW      N/A     66  49  54 SE6       29.61S
UMBARGER 3NNE    N/A     64  19  17 W14       29.68R
$$

TXZ033>036-039>041-045>048-240500
TEXAS TECH WEST TEXAS MESONET/SOUTH PLAINS

CITY           SKY/WX    TMP DP  RH WIND       PRES   REMARKS
AIKEN 3WSW       N/A     60  25  26 SW12      29.68R
ANDREWS 2NE      N/A     71  25  18 S12       29.74R
ANTON 6SSW       N/A     72  19  13 SW16      29.68S
BROWNFIELD 2S    N/A     66  25  21 SW9       29.71R
DENVR CTY 7WNW   N/A     73  15  11 SW16      29.74R
GAIL 2ESE        N/A     75  52  43 S9        29.68R
LAMESA 2SE       N/A     69  52  54 S9        29.72R
LEVELLAND 4S     N/A     72  16  11 SW16      29.70R
LUBBOCK 3WNW     N/A     76  19  11 SW16      29.68R
MORTON 1ENE      N/A     71  17  12 SW17      29.71R
ODONNELL 1N      N/A     71  36  27 S10       29.71R
PLAINS 3N        N/A     71  16  12 SW13      29.73S
RALLS 1SE        N/A     63  29  27 SW8       29.68R
REESE CENTER     N/A     70  17  13 SW13      29.68S
SEAGRAVES 1SW    N/A     69  20  15 SW13      29.72R
SEMINOLE 2NNE    N/A     69  22  16 SW8       29.73R
SLATON 2NE       N/A     69  27  21 SW12      29.68R
SNYDER 3E        N/A     75  53  46 S15       29.69R
SUNDOWN 8SW      N/A     72  17  12 SW16      29.72R
TAHOKA 3NNE      N/A     65  26  23 S10       29.69R
WOLFFORTH 6SSW   N/A     71  22  16 SW15      29.70R
$$

TXZ031-032-036>038-042>044-240500-
TEXAS TECH WEST TEXAS MESONET/ROLLING PLAINS

CITY           SKY/WX    TMP DP  RH WIND       PRES   REMARKS
ASPERMONT 3NE    N/A     73  55  53 S8        29.64R
FLUVANNA 3WNW    N/A     76  50  41 S18       29.69R
GRAHAM 5SSW      N/A     77  46  33 S20       29.68R
GUTHRIE 10WSW    N/A     68  54  60 SE14      29.62R
HASKELL 1NW      N/A     80  54  41 S14       29.65R
LK A HENRY 1NW   N/A     78  53  40 S12       29.66R
NORTHFIELD 1S    N/A     69  55  61 SE14      29.60R
ODELL 4ENE       N/A     72  59  63 SE26      29.63S
PADUCAH 10SW     N/A     66  56  70 S8        29.62R
POST 1NE         N/A     77  35  21 S10       29.67R
RRING SPRGS 3N   N/A     67  33  28 S7        29.64R
SEYMOUR 3NW      N/A     69  62  78 E16       29.66S
SPUR 1W          N/A     77  45  32 S14       29.63R
WEINERT 2NNE     N/A     75  61  60 SE13      29.64S
WHITE RVR 6NE    N/A     71  28  20 S9        29.66R
$$

TXZ052-054-060>062-072-078-127-140-154-169-240500-
TEXAS TECH WEST TEXAS MESONET/PERMIAN BASIN/
CONCHO VALLEY/BIG COUNTRY/EDWARDS PLATEAU

CITY           SKY/WX    TMP DP  RH WIND       PRES   REMARKS
COYANOSA 2N      N/A     76  55  47 SE9       29.72S
JUNCTION 1SSW    N/A     77  61  58 S7        29.75R
MERTZON 3NNE     N/A     76  57  50 S12       29.73R
SAN ANGELO 7NW   N/A     77  55  46 S12       29.72R
STRLNG CT 4WSW   N/A     77  56  48 S16       29.73R
ST LAWRNCE 5SW   N/A     71  57  59 S13       29.75R
SWEETWATR 11SW   N/A     76  56  48 S15       29.72R
WALL 1E          N/A     77  55  47 S16       29.70R
$$

TXZ055-058-074-075-080-082-240500-
TEXAS TECH WEST TEXAS MESONET/FAR WEST/SOUTHWEST MOUNTAINS/TRANS PECOS

CITY           SKY/WX    TMP DP  RH WIND       PRES   REMARKS
PRSMN GAP BBNP   N/A     82  16   8 CALM      29.75R
GUADLPE MTN NP   N/A     70  17  13 W20G30    29.89S
$$